Time,TemperatureF,DewpointF,PressureIn,WindDirection,WindDirectionDegrees,WindSpeedMPH,WindSpeedGustMPH,Humidity,HourlyPrecipIn,Conditions,Clouds,dailyrainin,SoftwareType,DateUTC
2013-03-16 00:02:00,43.0,30.0,29.76,NNW,343,6.0,12.0,59,0.00,,,0.00,,2013-03-16 04:02:00,
2013-03-16 00:13:00,43.0,30.0,29.76,NNW,343,6.0,12.0,59,0.00,,,0.00,,2013-03-16 04:13:00,
2013-03-16 00:23:00,43.0,30.0,29.76,NW,321,4.0,13.0,59,0.00,,,0.00,,2013-03-16 04:23:00,
2013-03-16 00:33:00,42.0,29.0,29.77,NNW,330,6.0,13.0,59,0.00,,,0.00,,2013-03-16 04:33:00,
2013-03-16 00:43:00,42.0,29.0,29.77,NNW,330,6.0,13.0,59,0.00,,,0.00,,2013-03-16 04:43:00,
2013-03-16 00:53:00,42.0,28.0,29.76,NNW,348,8.0,15.0,58,0.00,,,0.00,,2013-03-16 04:53:00,
2013-03-16 01:02:00,42.0,29.0,29.76,WNW,298,7.0,13.0,59,0.00,,,0.00,,2013-03-16 05:02:00,
2013-03-16 01:12:00,42.0,29.0,29.76,WNW,298,7.0,13.0,59,0.00,,,0.00,,2013-03-16 05:12:00,
2013-03-16 01:22:00,41.0,27.0,29.76,NW,326,7.0,14.0,58,0.00,,,0.00,,2013-03-16 05:22:00,
2013-03-16 01:32:00,41.0,27.0,29.76,NNW,335,6.0,15.0,57,0.00,,,0.00,,2013-03-16 05:32:00,
2013-03-16 01:42:00,41.0,27.0,29.76,NNW,335,6.0,15.0,57,0.00,,,0.00,,2013-03-16 05:42:00,
2013-03-16 01:53:00,41.0,27.0,29.77,North,349,8.0,15.0,56,0.00,,,0.00,,2013-03-16 05:53:00,
2013-03-16 02:02:00,40.0,25.0,29.77,NW,309,10.0,18.0,55,0.00,,,0.00,,2013-03-16 06:02:00,
2013-03-16 02:12:00,40.0,25.0,29.77,NW,309,10.0,18.0,55,0.00,,,0.00,,2013-03-16 06:12:00,
2013-03-16 02:22:00,40.0,25.0,29.77,NE,43,5.0,14.0,55,0.00,,,0.00,,2013-03-16 06:22:00,
2013-03-16 02:32:00,40.0,25.0,29.78,North,354,3.0,10.0,54,0.00,,,0.00,,2013-03-16 06:32:00,
2013-03-16 02:42:00,40.0,25.0,29.78,North,354,3.0,10.0,54,0.00,,,0.00,,2013-03-16 06:42:00,
2013-03-16 02:52:00,40.0,23.0,29.78,NNW,347,7.0,13.0,51,0.00,,,0.00,,2013-03-16 06:52:00,
2013-03-16 03:02:00,39.0,23.0,29.78,NW,307,3.0,11.0,52,0.00,,,0.00,,2013-03-16 07:02:00,
2013-03-16 03:12:00,39.0,23.0,29.78,NW,307,3.0,11.0,52,0.00,,,0.00,,2013-03-16 07:12:00,
2013-03-16 03:22:00,39.0,22.0,29.78,North,354,6.0,11.0,51,0.00,,,0.00,,2013-03-16 07:22:00,
2013-03-16 03:32:00,39.0,22.0,29.79,NNW,342,5.0,18.0,51,0.00,,,0.00,,2013-03-16 07:32:00,
2013-03-16 03:42:00,39.0,22.0,29.79,NNW,342,5.0,18.0,51,0.00,,,0.00,,2013-03-16 07:42:00,
2013-03-16 03:52:00,39.0,23.0,29.79,WNW,297,3.0,15.0,52,0.00,,,0.00,,2013-03-16 07:52:00,
2013-03-16 04:03:00,39.0,23.0,29.78,NNW,346,5.0,11.0,52,0.00,,,0.00,,2013-03-16 08:03:00,
2013-03-16 04:12:00,39.0,23.0,29.78,NNW,346,5.0,11.0,52,0.00,,,0.00,,2013-03-16 08:12:00,
2013-03-16 04:23:00,39.0,22.0,29.78,NNW,333,6.0,11.0,51,0.00,,,0.00,,2013-03-16 08:23:00,
2013-03-16 04:32:00,38.0,22.0,29.79,NW,321,2.0,7.0,52,0.00,,,0.00,,2013-03-16 08:32:00,
2013-03-16 04:42:00,38.0,22.0,29.79,NW,321,2.0,7.0,52,0.00,,,0.00,,2013-03-16 08:42:00,
2013-03-16 04:52:00,38.0,22.0,29.79,NW,325,4.0,10.0,52,0.00,,,0.00,,2013-03-16 08:52:00,
2013-03-16 05:02:00,38.0,22.0,29.79,NNW,335,2.0,11.0,53,0.00,,,0.00,,2013-03-16 09:02:00,
2013-03-16 05:12:00,38.0,22.0,29.79,NNW,335,2.0,11.0,53,0.00,,,0.00,,2013-03-16 09:12:00,
2013-03-16 05:22:00,38.0,23.0,29.80,NNW,330,4.0,8.0,54,0.00,,,0.00,,2013-03-16 09:22:00,
2013-03-16 05:33:00,38.0,23.0,29.80,NW,326,4.0,9.0,54,0.00,,,0.00,,2013-03-16 09:33:00,
2013-03-16 05:42:00,38.0,23.0,29.80,NW,326,4.0,9.0,54,0.00,,,0.00,,2013-03-16 09:42:00,
2013-03-16 05:53:00,37.0,22.0,29.80,NE,36,5.0,11.0,55,0.00,,,0.00,,2013-03-16 09:53:00,
2013-03-16 06:03:00,37.0,22.0,29.80,NE,36,5.0,11.0,55,0.00,,,0.00,,2013-03-16 10:03:00,
2013-03-16 06:12:00,37.0,22.0,29.80,NE,36,5.0,11.0,55,0.00,,,0.00,,2013-03-16 10:12:00,
2013-03-16 06:23:00,37.0,21.0,29.81,NNW,340,8.0,14.0,51,0.00,,,0.00,,2013-03-16 10:23:00,
2013-03-16 06:32:00,37.0,21.0,29.82,NNW,336,4.0,9.0,51,0.00,,,0.00,,2013-03-16 10:32:00,
2013-03-16 06:42:00,37.0,21.0,29.82,NNW,336,4.0,9.0,51,0.00,,,0.00,,2013-03-16 10:42:00,
2013-03-16 06:53:00,36.0,20.0,29.83,NNW,330,3.0,7.0,51,0.00,,,0.00,,2013-03-16 10:53:00,
2013-03-16 07:03:00,36.0,19.0,29.82,NW,310,5.0,8.0,50,0.00,,,0.00,,2013-03-16 11:03:00,
2013-03-16 07:12:00,36.0,19.0,29.82,NW,310,5.0,8.0,50,0.00,,,0.00,,2013-03-16 11:12:00,
2013-03-16 07:22:00,36.0,20.0,29.82,North,351,2.0,7.0,51,0.00,,,0.00,,2013-03-16 11:22:00,
2013-03-16 07:32:00,36.0,20.0,29.82,NNW,341,4.0,7.0,52,0.00,,,0.00,,2013-03-16 11:32:00,
2013-03-16 07:43:00,36.0,20.0,29.82,NNW,341,4.0,7.0,52,0.00,,,0.00,,2013-03-16 11:43:00,
2013-03-16 07:53:00,36.0,20.0,29.82,North,4,2.0,-999.0,52,-99.99,,,-99.99,,2013-03-16 11:53:00,
2013-03-16 08:02:00,36.0,20.0,29.83,NNW,332,3.0,6.0,52,0.00,,,0.00,,2013-03-16 12:02:00,
2013-03-16 08:12:00,36.0,20.0,29.83,NNW,332,3.0,6.0,52,0.00,,,0.00,,2013-03-16 12:12:00,
2013-03-16 08:22:00,36.0,20.0,29.84,North,354,0.0,3.0,52,0.00,,,0.00,,2013-03-16 12:22:00,
2013-03-16 08:32:00,37.0,21.0,29.84,NE,47,3.0,6.0,51,0.00,,,0.00,,2013-03-16 12:32:00,
2013-03-16 08:42:00,37.0,21.0,29.84,NE,47,3.0,6.0,51,0.00,,,0.00,,2013-03-16 12:42:00,
2013-03-16 08:53:00,37.0,21.0,29.84,East,86,1.0,5.0,51,0.00,,,0.00,,2013-03-16 12:53:00,
2013-03-16 09:02:00,37.0,20.0,29.84,North,359,1.0,6.0,50,0.00,,,0.00,,2013-03-16 13:02:00,
2013-03-16 09:12:00,37.0,20.0,29.84,North,359,1.0,6.0,50,0.00,,,0.00,,2013-03-16 13:12:00,
2013-03-16 09:22:00,37.0,20.0,29.84,NNW,347,1.0,6.0,50,0.00,,,0.00,,2013-03-16 13:22:00,
2013-03-16 09:32:00,37.0,20.0,29.84,NNE,20,2.0,7.0,50,0.00,,,0.00,,2013-03-16 13:32:00,
2013-03-16 09:42:00,37.0,20.0,29.84,NNE,20,2.0,7.0,50,0.00,,,0.00,,2013-03-16 13:42:00,
2013-03-16 09:53:00,37.0,19.0,29.83,South,174,1.0,4.0,48,0.00,,,0.00,,2013-03-16 13:53:00,
2013-03-16 10:03:00,37.0,19.0,29.82,West,277,2.0,5.0,48,0.00,,,0.00,,2013-03-16 14:03:00,
2013-03-16 10:12:00,37.0,19.0,29.82,West,277,2.0,5.0,48,0.00,,,0.00,,2013-03-16 14:12:00,
2013-03-16 10:22:00,37.0,20.0,29.82,NNE,12,1.0,5.0,49,0.00,,,0.00,,2013-03-16 14:22:00,
2013-03-16 10:32:00,37.0,20.0,29.83,West,278,1.0,4.0,50,0.00,,,0.00,,2013-03-16 14:32:00,
2013-03-16 10:42:00,37.0,20.0,29.83,West,278,1.0,4.0,50,0.00,,,0.00,,2013-03-16 14:42:00,
2013-03-16 11:03:00,37.0,21.0,29.83,NNW,345,1.0,5.0,52,0.00,,,0.00,,2013-03-16 15:03:00,
2013-03-16 11:13:00,37.0,21.0,29.83,NNW,345,1.0,5.0,52,0.00,,,0.00,,2013-03-16 15:13:00,
2013-03-16 11:23:00,37.0,21.0,29.83,NNW,335,2.0,6.0,52,0.00,,,0.00,,2013-03-16 15:23:00,
2013-03-16 11:33:00,37.0,21.0,29.83,ESE,102,1.0,5.0,52,0.00,,,0.00,,2013-03-16 15:33:00,
2013-03-16 11:43:00,37.0,21.0,29.83,ESE,102,1.0,5.0,52,0.00,,,0.00,,2013-03-16 15:43:00,
2013-03-16 11:53:00,38.0,22.0,29.83,East,79,2.0,6.0,52,0.00,,,0.00,,2013-03-16 15:53:00,
2013-03-16 12:03:00,37.0,22.0,29.83,ENE,68,2.0,4.0,55,0.00,,,0.00,,2013-03-16 16:03:00,
2013-03-16 12:13:00,37.0,22.0,29.83,ENE,68,2.0,4.0,55,0.00,,,0.00,,2013-03-16 16:13:00,
2013-03-16 12:23:00,37.0,23.0,29.83,NE,37,0.0,5.0,57,0.00,,,0.00,,2013-03-16 16:23:00,
2013-03-16 12:33:00,36.0,24.0,29.82,ESE,113,0.0,1.0,62,0.00,,,0.00,,2013-03-16 16:33:00,
2013-03-16 12:42:00,36.0,24.0,29.82,ESE,113,0.0,1.0,62,0.00,,,0.00,,2013-03-16 16:42:00,
2013-03-16 12:53:00,38.0,25.0,29.82,SSE,150,0.0,1.0,60,0.00,,,0.00,,2013-03-16 16:53:00,
2013-03-16 13:03:00,38.0,25.0,29.81,South,175,1.0,4.0,59,0.00,,,0.00,,2013-03-16 17:03:00,
2013-03-16 13:13:00,38.0,25.0,29.81,South,175,1.0,4.0,59,0.00,,,0.00,,2013-03-16 17:13:00,
2013-03-16 13:23:00,38.0,25.0,29.80,SSE,153,0.0,2.0,59,0.00,,,0.00,,2013-03-16 17:23:00,
2013-03-16 13:32:00,38.0,25.0,29.80,SE,143,0.0,2.0,60,0.00,,,0.00,,2013-03-16 17:32:00,
2013-03-16 13:42:00,38.0,25.0,29.80,SE,143,0.0,2.0,60,0.00,,,0.00,,2013-03-16 17:42:00,
2013-03-16 13:53:00,37.0,26.0,29.80,SSE,152,0.0,2.0,64,0.00,,,0.00,,2013-03-16 17:53:00,
2013-03-16 14:02:00,37.0,27.0,29.80,SSE,161,0.0,2.0,67,0.00,,,0.00,,2013-03-16 18:02:00,
2013-03-16 14:13:00,37.0,27.0,29.80,SSE,161,0.0,2.0,67,0.00,,,0.00,,2013-03-16 18:13:00,
2013-03-16 14:23:00,36.0,28.0,29.80,SSE,165,1.0,4.0,72,0.00,,,0.00,,2013-03-16 18:23:00,
2013-03-16 14:33:00,35.0,28.0,29.80,South,191,1.0,4.0,75,0.00,,,0.00,,2013-03-16 18:33:00,
2013-03-16 14:43:00,35.0,28.0,29.80,South,191,1.0,4.0,75,0.00,,,0.00,,2013-03-16 18:43:00,
2013-03-16 14:53:00,34.0,28.0,29.80,SSE,155,0.0,5.0,78,0.00,,,0.00,,2013-03-16 18:53:00,
2013-03-16 15:02:00,34.0,28.0,29.79,South,169,0.0,1.0,80,0.00,,,0.00,,2013-03-16 19:02:00,
2013-03-16 15:12:00,34.0,28.0,29.79,South,169,0.0,1.0,80,0.00,,,0.00,,2013-03-16 19:12:00,
2013-03-16 15:22:00,34.0,29.0,29.80,SSE,148,0.0,1.0,81,0.00,,,0.00,,2013-03-16 19:22:00,
2013-03-16 15:32:00,34.0,29.0,29.78,SSE,158,0.0,1.0,83,0.00,,,0.00,,2013-03-16 19:32:00,
2013-03-16 15:42:00,34.0,29.0,29.78,SSE,158,0.0,1.0,83,0.00,,,0.00,,2013-03-16 19:42:00,
2013-03-16 15:53:00,34.0,30.0,29.78,SSE,162,0.0,2.0,84,0.01,,,0.01,,2013-03-16 19:53:00,
2013-03-16 16:02:00,34.0,30.0,29.78,SSE,148,0.0,2.0,85,0.02,,,0.02,,2013-03-16 20:02:00,
2013-03-16 16:12:00,34.0,30.0,29.78,SSE,148,0.0,2.0,85,0.02,,,0.02,,2013-03-16 20:12:00,
2013-03-16 16:22:00,34.0,30.0,29.77,SSE,152,0.0,1.0,85,0.03,,,0.03,,2013-03-16 20:22:00,
2013-03-16 16:33:00,34.0,30.0,29.77,SE,124,0.0,2.0,85,0.03,,,0.03,,2013-03-16 20:33:00,
2013-03-16 16:42:00,34.0,30.0,29.77,SE,124,0.0,2.0,85,0.03,,,0.03,,2013-03-16 20:42:00,
2013-03-16 16:53:00,34.0,30.0,29.77,ENE,70,1.0,3.0,86,0.02,,,0.03,,2013-03-16 20:53:00,
2013-03-16 17:02:00,34.0,30.0,29.77,East,92,0.0,4.0,86,0.01,,,0.03,,2013-03-16 21:02:00,
2013-03-16 17:12:00,34.0,30.0,29.77,East,92,0.0,4.0,86,0.01,,,0.03,,2013-03-16 21:12:00,
2013-03-16 17:23:00,34.0,31.0,29.77,SE,139,0.0,3.0,87,0.00,,,0.03,,2013-03-16 21:23:00,
2013-03-16 17:33:00,34.0,31.0,29.78,ESE,121,0.0,4.0,87,0.01,,,0.04,,2013-03-16 21:33:00,
2013-03-16 17:43:00,34.0,31.0,29.78,ESE,121,0.0,4.0,87,0.01,,,0.04,,2013-03-16 21:43:00,
2013-03-16 17:53:00,33.0,30.0,29.78,South,191,1.0,4.0,87,0.01,,,0.04,,2013-03-16 21:53:00,
2013-03-16 18:03:00,33.0,30.0,29.77,ESE,118,0.0,2.0,88,0.01,,,0.04,,2013-03-16 22:03:00,
2013-03-16 18:13:00,33.0,30.0,29.77,ESE,118,0.0,2.0,88,0.01,,,0.04,,2013-03-16 22:13:00,
2013-03-16 18:23:00,33.0,30.0,29.77,SE,124,0.0,1.0,87,0.00,,,0.04,,2013-03-16 22:23:00,
2013-03-16 18:33:00,33.0,30.0,29.78,ESE,110,1.0,3.0,87,0.00,,,0.04,,2013-03-16 22:33:00,
2013-03-16 18:42:00,33.0,30.0,29.78,ESE,110,1.0,3.0,87,0.00,,,0.04,,2013-03-16 22:42:00,
2013-03-16 18:53:00,33.0,30.0,29.78,East,100,0.0,2.0,88,0.00,,,0.04,,2013-03-16 22:53:00,
2013-03-16 19:02:00,33.0,30.0,29.78,NW,323,1.0,4.0,88,0.00,,,0.04,,2013-03-16 23:02:00,
2013-03-16 19:13:00,33.0,30.0,29.78,NW,323,1.0,4.0,88,0.00,,,0.04,,2013-03-16 23:13:00,
2013-03-16 19:23:00,33.0,30.0,29.79,NW,307,1.0,5.0,88,0.01,,,0.05,,2013-03-16 23:23:00,
2013-03-16 19:33:00,34.0,31.0,29.79,NW,323,1.0,5.0,88,0.01,,,0.05,,2013-03-16 23:33:00,
2013-03-16 19:42:00,34.0,31.0,29.79,NW,323,1.0,5.0,88,0.01,,,0.05,,2013-03-16 23:42:00,
2013-03-16 19:53:00,33.0,30.0,29.80,NNE,12,0.0,4.0,88,0.01,,,0.05,,2013-03-16 23:53:00,
2013-03-16 20:02:00,33.0,30.0,29.81,East,79,2.0,6.0,88,0.01,,,0.05,,2013-03-17 00:02:00,
2013-03-16 20:12:00,33.0,30.0,29.81,East,79,2.0,6.0,88,0.01,,,0.05,,2013-03-17 00:12:00,
2013-03-16 20:23:00,33.0,30.0,29.81,ENE,61,0.0,4.0,88,0.00,,,0.05,,2013-03-17 00:23:00,
2013-03-16 20:33:00,33.0,30.0,29.83,East,86,1.0,4.0,88,0.00,,,0.05,,2013-03-17 00:33:00,
2013-03-16 20:42:00,33.0,30.0,29.83,East,86,1.0,4.0,88,0.00,,,0.05,,2013-03-17 00:42:00,
2013-03-16 20:52:00,33.0,29.0,29.83,ENE,63,2.0,4.0,86,0.00,,,0.05,,2013-03-17 00:52:00,
2013-03-16 21:02:00,33.0,29.0,29.83,North,358,1.0,5.0,86,0.00,,,0.05,,2013-03-17 01:02:00,
2013-03-16 21:12:00,33.0,29.0,29.83,North,358,1.0,5.0,86,0.00,,,0.05,,2013-03-17 01:12:00,
2013-03-16 21:22:00,33.0,30.0,29.84,NNE,27,1.0,3.0,87,0.01,,,0.06,,2013-03-17 01:22:00,
2013-03-16 21:32:00,34.0,31.0,29.85,North,8,1.0,4.0,87,0.01,,,0.06,,2013-03-17 01:32:00,
2013-03-16 21:42:00,34.0,31.0,29.85,North,8,1.0,4.0,87,0.01,,,0.06,,2013-03-17 01:42:00,
2013-03-16 21:53:00,34.0,31.0,29.85,East,79,0.0,4.0,87,0.01,,,0.06,,2013-03-17 01:53:00,
2013-03-16 22:03:00,34.0,30.0,29.86,East,79,1.0,4.0,86,0.01,,,0.06,,2013-03-17 02:03:00,
2013-03-16 22:13:00,34.0,30.0,29.86,East,79,1.0,4.0,86,0.01,,,0.06,,2013-03-17 02:13:00,
2013-03-16 22:22:00,34.0,30.0,29.86,NNE,20,1.0,4.0,85,0.00,,,0.06,,2013-03-17 02:22:00,
2013-03-16 22:33:00,34.0,30.0,29.86,East,98,0.0,3.0,85,0.00,,,0.06,,2013-03-17 02:33:00,
2013-03-16 22:43:00,34.0,30.0,29.86,East,98,0.0,3.0,85,0.00,,,0.06,,2013-03-17 02:43:00,
2013-03-16 22:53:00,34.0,29.0,29.86,NNW,339,3.0,5.0,83,0.00,,,0.06,,2013-03-17 02:53:00,
2013-03-16 23:03:00,34.0,28.0,29.88,NW,326,2.0,6.0,80,0.00,,,0.06,,2013-03-17 03:03:00,
2013-03-16 23:12:00,34.0,28.0,29.88,NW,326,2.0,6.0,80,0.00,,,0.06,,2013-03-17 03:12:00,
2013-03-16 23:23:00,34.0,28.0,29.88,NW,314,1.0,4.0,79,0.00,,,0.06,,2013-03-17 03:23:00,
2013-03-16 23:34:00,34.0,28.0,29.88,North,350,1.0,5.0,79,0.00,,,0.06,,2013-03-17 03:34:00,
2013-03-16 23:43:00,34.0,28.0,29.88,North,350,1.0,5.0,79,0.00,,,0.06,,2013-03-17 03:43:00,
2013-03-16 23:53:00,34.0,28.0,29.88,North,350,1.0,5.0,79,0.00,,,0.06,,2013-03-17 03:53:00,